Location: Banios
(43.0451°N, 0.2335°E)
Time: 08:53:31
(UTC+00:00)

A-11 Canister half - Pass Details

Date: 20 May 2021
Orbit: 1527 x 1681 km, 47.3° (Epoch: 22 June)

Event Time Altitude Azimuth Distance (km) Brightness Sun altitude
Rises 10:43:19 0° 282° (WNW) 4,749 11.4 62.5°
Reaches altitude 10° 10:46:23 10° 285° (WNW) 3,784 11.0 62.8°
Maximum altitude 10:56:03 73° 10° (N) 1,685 10.2 63.9°
Drops below altitude 10° 11:06:02 10° 95° (E) 3,902 11.5 64.8°
Sets 11:09:15 0° 98° (E) 4,903 11.8 65.1°
